Airfield :
LOGIN :

Register | Disclaimer

   EN    FR    IT 

 










Legend :    VFR   Marginal VFR   IFR   Intensive IFR   Very Intensive IFR
Visi :
Ceiling :
>= 8 km
>= 3000ft
5 to 8 km
1000 to 3000 ft
1500m to 5 km
500 to 1000 ft
800 to 1500m
200 to 500 ft
< 800m
< 200 ft
Symbols :   Thunderstorms  Fog  Heavy snow  Heavy precipitations  Wind > 20 kt
SIGMETs :     Misc.  Thunderstorms  Icing  Turbulence  Mountain Waves  Volcanic Ashes







- Airport Elevation : 390 ft
- IATA code : NQY
- Download approach charts


EGHQ - Newquay

CURRENT METAR :
  • 221820Z 35008KT 320V020 9999 FEW025 14/10 Q1031

EXPIRED METARs :
  • 221750Z 35007KT 310V030 9999 FEW020 14/10 Q1031
  • 221720Z 34009KT 310V010 9999 FEW017 14/10 Q1031
  • 221650Z 35009KT 320V030 9999 FEW017 14/10 Q1031
  • 221620Z 35010KT 320V020 9999 FEW020 15/09 Q1031
  • 221550Z 34010KT 310V010 9999 FEW020 15/09 Q1031

TAF TAF EGHQ
Valid from the 22 at 18:00 until the 22 at 21:00 UTC


221701Z 2218/2221 36009KT CAVOK
No reported NOTAMs for that airfield.



MET'MAP, your aeronautical weather chart ! - Copyright ORBIFLY December 2007 - Disclaimer

ORBIFLY MET'MAP TEAM :

Programming & Development : Alexandra Zaïnal
Concept & Development : Baudouin d'Aumeries
Co-Development & Prog : Marc-Olivier Méhu
Technical & hardware support : Manuel Goepfert

Contact : metmap@orbifly.com




SOURCES & CREDITS :

   NOAA